TimeEST,TemperatureF,Dew PointF,Humidity,Sea Level PressureIn,VisibilityMPH,Wind Direction,Wind SpeedMPH,Gust SpeedMPH,PrecipitationIn,Events,Conditions,WindDirDegrees,DateUTC
12:17 AM,24.8,19.4,80,29.79,10.0,NNW,6.9,-,N/A,,Overcast,340,2013-01-22 05:17:00
12:54 AM,24.1,19.0,81,29.77,10.0,NNW,5.8,-,N/A,,Overcast,340,2013-01-22 05:54:00
1:10 AM,24.8,17.6,74,29.76,10.0,NNW,5.8,-,N/A,,Overcast,340,2013-01-22 06:10:00
1:54 AM,24.1,18.0,77,29.77,10.0,NW,6.9,-,N/A,,Overcast,320,2013-01-22 06:54:00
2:54 AM,24.1,18.0,77,29.77,8.0,NW,9.2,-,0.00,Snow,Light Snow,320,2013-01-22 07:54:00
3:30 AM,23.0,17.6,80,29.76,10.0,NW,4.6,-,0.00,,Overcast,310,2013-01-22 08:30:00
3:54 AM,23.0,17.1,78,29.76,10.0,WNW,6.9,-,0.00,,Overcast,290,2013-01-22 08:54:00
4:54 AM,21.9,17.1,82,29.77,10.0,WNW,13.8,-,N/A,,Scattered Clouds,290,2013-01-22 09:54:00
5:01 AM,21.2,17.6,86,29.77,10.0,WNW,9.2,-,N/A,,Partly Cloudy,290,2013-01-22 10:01:00
5:38 AM,21.2,17.6,86,29.77,5.0,WNW,10.4,-,0.00,Snow,Light Snow,290,2013-01-22 10:38:00
5:54 AM,21.9,18.0,85,29.78,5.0,WNW,11.5,-,0.00,Snow,Light Snow,300,2013-01-22 10:54:00
6:21 AM,21.2,17.6,86,29.79,10.0,WNW,12.7,-,0.00,,Mostly Cloudy,290,2013-01-22 11:21:00
6:54 AM,21.0,16.0,81,29.80,10.0,WNW,15.0,-,0.00,,Scattered Clouds,290,2013-01-22 11:54:00
7:54 AM,21.0,12.0,68,29.82,10.0,WNW,17.3,25.3,N/A,,Partly Cloudy,290,2013-01-22 12:54:00
8:54 AM,21.9,10.9,63,29.84,10.0,WNW,17.3,26.5,N/A,,Partly Cloudy,290,2013-01-22 13:54:00
9:54 AM,23.0,10.0,58,29.86,10.0,WNW,15.0,27.6,N/A,,Partly Cloudy,290,2013-01-22 14:54:00
10:54 AM,24.1,9.0,53,29.86,10.0,WNW,19.6,23.0,N/A,,Partly Cloudy,290,2013-01-22 15:54:00
11:54 AM,25.0,8.1,49,29.86,10.0,WNW,18.4,23.0,N/A,,Scattered Clouds,300,2013-01-22 16:54:00
12:54 PM,24.1,3.9,42,29.85,10.0,West,15.0,24.2,N/A,,Scattered Clouds,270,2013-01-22 17:54:00
1:54 PM,23.0,1.0,39,29.87,10.0,West,18.4,25.3,N/A,,Scattered Clouds,270,2013-01-22 18:54:00
2:54 PM,24.1,-0.0,35,29.89,10.0,WNW,17.3,23.0,N/A,,Mostly Cloudy,290,2013-01-22 19:54:00
3:54 PM,23.0,-0.9,35,29.91,10.0,WNW,17.3,-,N/A,,Mostly Cloudy,290,2013-01-22 20:54:00
4:54 PM,21.0,-2.9,35,29.94,10.0,WNW,17.3,25.3,N/A,,Scattered Clouds,290,2013-01-22 21:54:00
5:54 PM,19.9,-4.0,35,29.98,10.0,WNW,19.6,-,N/A,,Partly Cloudy,290,2013-01-22 22:54:00
6:54 PM,19.0,-2.9,38,30.01,10.0,WNW,19.6,23.0,N/A,,Clear,290,2013-01-22 23:54:00
7:54 PM,18.0,-2.9,40,30.03,10.0,WNW,16.1,21.9,N/A,,Clear,290,2013-01-23 00:54:00
8:54 PM,17.1,-2.9,41,30.05,10.0,WNW,15.0,-,0.01,,Clear,290,2013-01-23 01:54:00
9:54 PM,16.0,-0.9,47,30.06,10.0,WNW,11.5,19.6,N/A,,Clear,300,2013-01-23 02:54:00
10:54 PM,15.1,-0.0,51,30.08,10.0,West,12.7,21.9,N/A,,Clear,280,2013-01-23 03:54:00
11:54 PM,15.1,-0.9,49,30.08,10.0,WNW,13.8,20.7,N/A,,Clear,290,2013-01-23 04:54:00